[[{"header":{"parameterUnit":"m.s-1","parameterCategory":1,"la1":30.2991,"la2":30.254,"lo1":-89.0895,"lo2":-89.0444,"dy":0.0017,"dx":0.0017,"nx":28,"ny":28,"refTime":"2025-09-12T21:00:00:Z","depth":0,"parameterNumber":2,"parameterNumberName":"U-component_of_WINDS"},"data":[0,0,0,0,0,0,0,0,0,0,0,0,0,0,0,0,0,0,0,0,0,0,0,0,0,0,0,0,0,0,0,0,0,0,0,0,0,0,0,0,0,0,0,0,0,0,0,0,0,0,0,0,0,0,0,0,0,0,-0.7396,-0.7397,0,-0.7423,-0.7423,-0.7424,-0.7421,-0.742,-0.742,-0.7419,-0.7447,-0.7448,-0.745,0,0,0,0,0,0,0,0,0,0,0,0,0,-0.7343,-0.7344,-0.7396,-0.7397,-0.7397,-0.7423,-0.7423,-0.7424,-0.7421,-0.742,-0.742,-0.7419,-0.7447,-0.7448,-0.745,0,0,0,0,0,0,0,0,0,0,0,0,0,-0.7368,-0.7344,-0.7396,-0.7399,-0.7399,-0.7423,-0.7423,-0.7424,-0.7421,-0.742,-0.7419,-0.7419,-0.7446,-0.7448,-0.745,-0.7473,0,0,-0.7455,-0.7456,0,0,0,0,0,0,0,0,-0.7366,-0.7369,-0.7398,-0.7398,-0.7399,-0.7418,-0.7415,-0.7441,-0.7421,-0.7413,-0.7419,-0.7419,-0.7438,-0.744,-0.7447,-0.7475,-0.7476,-0.7455,-0.7456,-0.7457,-0.7457,0,0,0,0,0,0,0,-0.7364,-0.7368,-0.7407,-0.7398,-0.7399,-0.7398,-0.7401,-0.742,-0.7429,-0.7413,-0.7413,-0.7416,-0.7438,-0.7445,-0.7448,-0.7476,-0.7455,-0.7457,-0.7458,-0.7458,-0.7525,-0.7526,0,0,0,0,0,0,-0.7362,-0.7367,-0.7406,-0.7408,-0.7381,-0.74,-0.7403,-0.7412,-0.7428,-0.743,-0.7417,-0.7416,-0.7443,-0.7446,-0.7448,-0.7477,-0.7457,-0.7459,-0.746,-0.7524,-0.7525,-0.7526,0,0,0,0,0,0,-0.7361,-0.7366,-0.7405,-0.7387,-0.7392,-0.7401,-0.7412,-0.7413,-0.742,-0.7431,-0.7433,-0.7422,-0.7442,-0.7446,-0.7467,-0.7478,-0.7459,-0.7461,-0.7523,-0.7524,-0.7525,-0.7535,0,0,0,0,0,0,-0.7359,-0.7365,-0.7374,-0.7388,-0.7393,-0.7423,-0.7413,-0.7414,-0.7423,-0.7422,-0.7437,-0.7438,-0.7442,-0.7465,-0.7469,-0.748,-0.7462,-0.7522,-0.7524,-0.7525,-0.7534,-0.7536,-0.7538,0,0,0,0,0,-0.7358,-0.7376,-0.7375,-0.7379,-0.7405,-0.7424,-0.7427,-0.7431,-0.7424,-0.7433,-0.744,-0.7438,-0.7476,-0.7467,-0.7472,-0.7484,-0.7522,-0.7523,-0.7525,-0.7533,-0.7536,-0.7538,0,0,0,0,0,0,-0.7364,-0.7378,-0.7377,-0.74,-0.7411,-0.7423,-0.7435,-0.7434,-0.7447,-0.7446,-0.745,-0.7453,-0.7475,-0.7481,-0.747,-0.7507,-0.7498,-0.7501,-0.7502,-0.7505,-0.7508,-0.7506,-0.7464,0,0,0,0,0,-0.7368,-0.7382,-0.7394,-0.7413,-0.7419,-0.7426,-0.7434,-0.7436,-0.7448,-0.7452,-0.7461,-0.7472,-0.7487,-0.7496,-0.751,-0.7534,-0.7538,-0.7545,-0.7547,-0.7549,-0.7552,-0.7565,-0.7568,-0.7531,-0.7531,-0.7531,0,0,-0.7377,-0.7386,-0.7395,-0.7415,-0.7423,-0.7438,-0.743,-0.7446,-0.7457,-0.7455,-0.7475,-0.7482,-0.7495,-0.7518,-0.7528,-0.7524,-0.7562,-0.7551,-0.7553,-0.7554,-0.7567,-0.757,-0.7574,-0.7532,-0.7532,-0.7532,0,0,-0.74,-0.7409,-0.7426,-0.7434,-0.7448,-0.7452,-0.7456,-0.7469,-0.7473,-0.7494,-0.7493,-0.7506,-0.7531,-0.754,-0.7548,-0.7575,-0.7573,-0.7579,-0.7592,-0.7605,-0.7607,-0.761,-0.762,-0.7623,-0.7581,-0.7581,-0.7581,0,-0.7409,-0.7432,-0.7435,-0.7451,-0.746,-0.7458,-0.7476,-0.7484,-0.7501,-0.7507,-0.7502,-0.7533,-0.7542,-0.7567,-0.7573,-0.758,-0.7585,-0.7578,-0.7607,-0.7609,-0.7612,-0.7621,-0.7625,-0.7582,-0.7582,-0.7582,-0.7582,0,-0.7443,-0.7458,-0.747,-0.7487,-0.7497,-0.7513,-0.7519,-0.7529,-0.753,-0.7535,-0.7556,-0.7566,-0.7582,-0.7588,-0.7589,-0.7613,-0.761,-0.7606,-0.7597,-0.7616,-0.7625,-0.7628,-0.7583,-0.7583,-0.7583,-0.7582,0,0,-0.7471,-0.7489,-0.7493,-0.7501,-0.7515,-0.7527,-0.7544,-0.7559,-0.7567,-0.7579,-0.7593,-0.7614,-0.761,-0.7619,-0.7621,-0.7633,-0.7653,-0.7627,-0.7627,-0.7632,-0.7681,-0.7684,-0.7688,-0.7652,-0.7653,-0.7653,-0.768,0,-0.7497,-0.7526,-0.7529,-0.7555,-0.757,-0.7568,-0.7583,-0.7593,-0.7598,-0.7611,-0.7617,-0.7632,-0.7625,-0.7631,-0.7642,-0.7648,-0.7663,-0.7647,-0.7666,-0.7666,-0.7663,-0.7693,-0.7696,-0.772,-0.7683,-0.7684,-0.7684,0,-0.753,-0.7542,-0.757,-0.7582,-0.7588,-0.7601,-0.7616,-0.7628,-0.7639,-0.7642,-0.7652,-0.7653,-0.767,-0.766,-0.7684,-0.7672,-0.768,-0.7685,-0.7686,-0.7688,-0.7677,-0.7696,-0.7728,-0.7732,-0.7689,-0.7689,-0.7689,0,-0.7549,-0.7572,-0.7592,-0.7598,-0.7613,-0.7622,-0.7628,-0.7639,-0.7648,-0.7661,-0.7667,-0.7681,-0.7689,-0.77,-0.7704,-0.7696,-0.7728,-0.7718,-0.7731,-0.7731,-0.7738,-0.7738,-0.7773,-0.7743,-0.7743,-0.7743,-0.7743,0,-0.7577,-0.7594,-0.76,-0.7613,-0.7632,-0.7635,-0.7654,-0.766,-0.7669,-0.7683,-0.7682,-0.7695,-0.7699,-0.7713,-0.7716,-0.7735,-0.7739,-0.7742,-0.7743,-0.7742,-0.7742,-0.7748,-0.7746,-0.7744,-0.7743,-0.7743,-0.7743,0,-0.7601,-0.7606,-0.7628,-0.7639,-0.7642,-0.7656,-0.7666,-0.7678,-0.7683,-0.7699,-0.7704,-0.7711,-0.7727,-0.7732,-0.7751,-0.7753,-0.7776,-0.7775,-0.7772,-0.7772,-0.7785,-0.7784,-0.7825,-0.7831,-0.7797,-0.7797,-0.7797,0,-0.7619,-0.7632,-0.7645,-0.7654,-0.766,-0.7675,-0.7684,-0.7687,-0.7697,-0.7711,-0.7721,-0.7736,-0.7749,-0.7774,-0.7781,-0.7795,-0.7795,-0.7808,-0.7797,-0.7796,-0.7795,-0.7795,-0.7796,-0.7811,-0.7811,-0.7811,-0.7812,0,-0.765,-0.7652,-0.7665,-0.7679,-0.769,-0.7701,-0.7712,-0.7719,-0.7724,-0.7735,-0.775,-0.776,-0.7779,-0.7795,-0.7809,-0.7816,-0.7815,-0.7815,-0.7819,-0.7819,-0.7816,-0.7818,-0.7778,-0.7814,-0.7814,-0.7814,-0.7813,-0.7813,-0.7672,-0.7684,-0.7694,-0.7709,-0.7717,-0.7727,-0.7739,-0.7745,-0.7758,-0.7774,-0.7775,-0.7792,-0.7803,-0.7822,-0.783,-0.7843,-0.7839,-0.7845,-0.7846,-0.7848,-0.7849,-0.7814,-0.7846,-0.7846,-0.7846,-0.7846,-0.7846,0,-0.7704,-0.771,-0.7724,-0.7738,-0.775,-0.7747,-0.7759,-0.7769,-0.7784,-0.7794,-0.7806,-0.7824,-0.7839,-0.7847,-0.7862,-0.7871,-0.7871,-0.7875,-0.7874,-0.7876,-0.7851,-0.7847,-0.7874,-0.7874,-0.7874,-0.7874,-0.7874,-0.7874,-0.7721,-0.7741,-0.7744,-0.7767,-0.7774,-0.779,-0.7797,-0.7806,-0.7814,-0.7835,-0.7847,-0.7852,-0.7861,-0.7876,-0.789,-0.7892,-0.7897,-0.7902,-0.7903,-0.788,-0.7877,-0.7875,-0.787,-0.7903,-0.7903,-0.7927,-0.7927,-0.7927]},{"header":{"parameterUnit":"m.s-1","parameterCategory":1,"la1":30.2991,"la2":30.254,"lo1":-89.0895,"lo2":-89.0444,"dy":0.0017,"dx":0.0017,"nx":28,"ny":28,"refTime":"2025-09-12T21:00:00:Z","depth":0,"parameterNumber":3,"parameterNumberName":"V-component_of_WINDS"},"data":[0,0,0,0,0,0,0,0,0,0,0,0,0,0,0,0,0,0,0,0,0,0,0,0,0,0,0,0,0,0,0,0,0,0,0,0,0,0,0,0,0,0,0,0,0,0,0,0,0,0,0,0,0,0,0,0,0,0,1.2056,1.2055,0,1.196,1.1958,1.1957,1.1895,1.1895,1.1894,1.1894,1.1791,1.1788,1.1786,0,0,0,0,0,0,0,0,0,0,0,0,0,1.2181,1.2179,1.2056,1.2055,1.2054,1.196,1.1958,1.1957,1.1895,1.1895,1.1894,1.1894,1.1792,1.1789,1.1786,0,0,0,0,0,0,0,0,0,0,0,0,0,1.211,1.2178,1.2056,1.2011,1.2006,1.196,1.1958,1.1957,1.1895,1.1895,1.1894,1.1894,1.1793,1.1789,1.1786,1.1775,0,0,1.1775,1.1773,0,0,0,0,0,0,0,0,1.2114,1.2105,1.2019,1.2014,1.2009,1.1939,1.1965,1.1896,1.1895,1.1937,1.1894,1.1893,1.184,1.1833,1.1816,1.177,1.1765,1.1774,1.1772,1.1771,1.1769,0,0,0,0,0,0,0,1.2119,1.2109,1.2018,1.2018,1.2012,1.1994,1.1984,1.1951,1.1893,1.1934,1.1929,1.1919,1.1837,1.1819,1.1813,1.1764,1.1774,1.1771,1.1769,1.1768,1.1702,1.1702,0,0,0,0,0,0,1.2131,1.2113,1.2021,1.2015,1.2061,1.1993,1.1981,1.1962,1.1893,1.1882,1.1919,1.1916,1.1826,1.1817,1.1809,1.179,1.1771,1.1767,1.1765,1.1701,1.1702,1.1702,0,0,0,0,0,0,1.2134,1.2124,1.2025,1.2063,1.2049,1.1991,1.197,1.196,1.1942,1.1882,1.1871,1.1912,1.1825,1.1814,1.1783,1.1786,1.1766,1.1762,1.1701,1.1701,1.1702,1.1754,0,0,0,0,0,0,1.2138,1.2125,1.2122,1.2063,1.2047,1.2003,1.1971,1.1959,1.1937,1.1932,1.1873,1.1862,1.1824,1.1789,1.178,1.178,1.1759,1.17,1.1701,1.1702,1.1752,1.1756,1.176,0,0,0,0,0,1.2143,1.214,1.2122,1.2111,1.2042,1.2003,1.1993,1.1951,1.1937,1.1932,1.1893,1.1864,1.1787,1.1787,1.1776,1.1775,1.17,1.1701,1.1702,1.175,1.1755,1.176,0,0,0,0,0,0,1.2199,1.2132,1.2111,1.2089,1.2053,1.1993,1.1985,1.1958,1.1923,1.192,1.1866,1.1854,1.1828,1.1798,1.1799,1.176,1.174,1.1739,1.178,1.1785,1.1789,1.1796,1.1757,0,0,0,0,0,1.221,1.2185,1.2126,1.2113,1.2096,1.2044,1.2025,1.1995,1.1954,1.1938,1.1897,1.1857,1.1823,1.1803,1.1769,1.1747,1.1732,1.1741,1.1745,1.1749,1.1748,1.1732,1.1735,1.1705,1.1705,1.1705,0,0,1.223,1.219,1.2177,1.2123,1.2091,1.2065,1.2031,1.2005,1.1985,1.1933,1.1902,1.1871,1.1822,1.1796,1.1782,1.177,1.1753,1.175,1.1754,1.1751,1.1734,1.1736,1.1739,1.1706,1.1705,1.1705,0,0,1.2254,1.2222,1.2206,1.2175,1.2127,1.2092,1.2088,1.2032,1.2009,1.1977,1.1938,1.1912,1.1856,1.1822,1.1798,1.1807,1.1778,1.1798,1.1819,1.1804,1.1807,1.1809,1.181,1.1812,1.1797,1.1797,1.1797,0,1.2284,1.2245,1.2201,1.2177,1.2154,1.2107,1.2089,1.206,1.2004,1.1987,1.1975,1.1903,1.1867,1.1831,1.1834,1.1816,1.1808,1.1804,1.181,1.1812,1.1813,1.1813,1.1814,1.18,1.18,1.1799,1.1799,0,1.2285,1.2258,1.2251,1.2198,1.2173,1.2153,1.2104,1.2084,1.2056,1.2022,1.1988,1.1943,1.1899,1.1888,1.186,1.1847,1.1841,1.1821,1.1799,1.1819,1.1819,1.1819,1.1804,1.1803,1.1802,1.1801,0,0,1.2342,1.2264,1.2262,1.2237,1.218,1.2157,1.2134,1.2091,1.2074,1.2036,1.2013,1.1967,1.1947,1.1919,1.1886,1.1874,1.1882,1.1854,1.1852,1.1859,1.1862,1.1878,1.1879,1.1862,1.1862,1.1862,1.1866,0,1.2356,1.2313,1.2271,1.2242,1.2216,1.217,1.2149,1.2111,1.2078,1.2049,1.2012,1.1979,1.1956,1.1939,1.1924,1.1884,1.1881,1.1883,1.1838,1.1837,1.1851,1.1879,1.1896,1.1902,1.1866,1.1866,1.1866,0,1.2367,1.2331,1.23,1.2244,1.2231,1.2214,1.217,1.2144,1.2099,1.2075,1.2044,1.201,1.198,1.1963,1.192,1.1922,1.1901,1.1878,1.1877,1.1871,1.1852,1.1872,1.1903,1.1904,1.1866,1.1866,1.1866,0,1.241,1.2354,1.2328,1.2308,1.2242,1.223,1.2202,1.2156,1.2133,1.2094,1.2078,1.2036,1.2013,1.1981,1.1935,1.1927,1.1896,1.1875,1.1874,1.1875,1.1869,1.187,1.1896,1.1858,1.1858,1.1858,1.1858,0,1.2429,1.2411,1.2346,1.233,1.2308,1.2259,1.2238,1.2205,1.2165,1.214,1.2097,1.2074,1.2016,1.1985,1.1949,1.1918,1.1908,1.1887,1.1877,1.189,1.1893,1.1875,1.1873,1.1858,1.1858,1.1858,1.1858,0,1.2474,1.2429,1.2397,1.2338,1.2322,1.2308,1.2256,1.2238,1.2202,1.2171,1.216,1.2104,1.2066,1.2017,1.1963,1.1938,1.1911,1.1897,1.1927,1.1921,1.1922,1.1922,1.1937,1.1935,1.19,1.19,1.1901,0,1.2489,1.2474,1.2413,1.2394,1.2367,1.2337,1.2313,1.2264,1.224,1.2186,1.2173,1.2132,1.2096,1.2036,1.1989,1.1947,1.1931,1.1938,1.1924,1.1937,1.1929,1.193,1.1927,1.1942,1.1943,1.1943,1.1944,0,1.2519,1.2498,1.2466,1.2425,1.2398,1.2363,1.2326,1.2313,1.2255,1.223,1.2191,1.2164,1.2108,1.2067,1.2018,1.1987,1.1955,1.1949,1.1946,1.1958,1.1976,1.1965,1.1936,1.1948,1.1948,1.1948,1.1947,1.1947,1.2548,1.2532,1.2487,1.2451,1.2419,1.2385,1.2364,1.2326,1.2293,1.2245,1.2218,1.2179,1.2131,1.2063,1.2033,1.2,1.1988,1.1985,1.1984,1.1983,1.1987,1.1982,1.1991,1.1991,1.1991,1.1991,1.199,0,1.2575,1.2544,1.2512,1.2462,1.2434,1.2408,1.2366,1.2343,1.231,1.2269,1.2235,1.2189,1.2148,1.2097,1.2053,1.2036,1.202,1.2026,1.2026,1.2019,1.2,1.2007,1.2039,1.2039,1.2039,1.2039,1.2039,1.2039,1.2586,1.2558,1.2531,1.2484,1.2452,1.2415,1.2392,1.236,1.2327,1.2278,1.2244,1.2212,1.2167,1.2118,1.2079,1.2065,1.2049,1.2059,1.2041,1.2024,1.202,1.2016,1.2022,1.2057,1.2057,1.2061,1.2061,1.2061]}]]